Location: Acton
(51.4942°N, 0.2232°W)
Time: 13:15:28
(UTC+00:00)

Cosmos 1655 Rocket - Visible Passes

Search period start: 16 January 2021 00:00
Search period end: 26 January 2021 00:00
Orbit: 969 x 1007 km, 82.9° (Epoch: 15 January)

Date Brightness Start Highest point End Pass type
(mag) Time Alt. Az. Time Alt. Az. Time Alt. Az.
16 Jan 6.4 05:41:38 10° NNE 05:45:35 17° NE 05:49:32 10° E visible
17 Jan 5.9 06:10:12 10° N 06:15:29 28° ENE 06:20:45 10° ESE visible
18 Jan 6.8 04:56:32 10° NE 04:57:40 10° NE 04:58:48 10° ENE visible
18 Jan 5.1 06:39:08 10° N 06:45:08 46° ENE 06:51:08 10° SE visible
19 Jan 6.5 05:23:42 10° NNE 05:27:48 18° ENE 05:31:53 10° E visible
19 Jan 4.2 07:08:17 10° N 07:14:34 79° E 07:20:50 10° SSE visible
20 Jan 5.9 05:52:18 10° N 05:57:40 29° ENE 06:03:01 10° SE visible
21 Jan 6.8 04:38:16 10° NNE 04:39:53 11° NE 04:41:30 10° ENE visible
21 Jan 5.0 06:21:15 10° N 06:27:18 48° ENE 06:33:20 10° SSE visible
21 Jan6.920:13:23NNE20:13:23NNE19:56:20Svisible
22 Jan 6.4 05:05:46 10° NNE 05:10:00 18° ENE 05:14:13 10° E visible
22 Jan 4.2 06:50:26 10° N 06:56:43 82° E 07:03:00 10° SSE visible
22 Jan6.720:41:57N20:41:57N20:26:59SSWvisible
23 Jan 5.8 05:34:24 10° N 05:39:50 30° ENE 05:45:17 10° SE visible
23 Jan 5.9 19:12:12 10° SSE 19:25:28 - NNE 19:12:50 13° SSE visible
23 Jan6.521:10:20N21:10:20N20:57:54SWvisible
24 Jan 6.8 04:20:07 10° NNE 04:22:07 11° NE 04:24:05 10° ENE visible
24 Jan 4.9 06:03:23 10° N 06:09:28 50° ENE 06:15:33 10° SSE visible
24 Jan 5.9 18:08:41 - NNE 18:08:41 - NNE 17:59:02 10° ESE visible
24 Jan 5.0 19:40:58 10° S 19:53:32 - NNE 19:44:08 33° S visible
24 Jan 6.5 21:28:44 10° WSW 21:38:23 10° N 21:38:27 10° N visible
25 Jan 6.4 04:47:50 10° NNE 04:52:12 19° ENE 04:56:33 10° ESE visible
25 Jan 4.1 06:32:33 10° N 06:38:52 85° E 06:45:11 10° S visible
25 Jan 4.7 18:26:11 10° SE 18:31:16 27° E 18:36:21 10° NNE visible
25 Jan 4.3 20:10:19 10° SSW 20:16:29 62° WNW 20:22:40 10° N visible
25 Jan 6.6 22:00:26 10° W 22:05:10 13° NW 22:06:43 10° NNW visible
